{"data":{"norad_id":62628,"epoch":"2026-05-25T03:05:10.925952Z","epoch_age_seconds":60978,"freshness":"FRESH","line1":"1 62628U 25009V   26145.12859868  .00027357  00000+0  58307-3 0  9994","line2":"2 62628  97.4310 185.7715 0593196 178.6426 181.6564 14.49814158 72208","mean_motion":14.49814158,"eccentricity":0.0593196,"inclination_deg":97.431,"raan_deg":185.7715,"arg_perigee_deg":178.6426,"mean_anomaly_deg":181.6564,"bstar":0.00058307,"rev_number":7220,"period_min":99.323074757834,"perigee_km":304.82582799266,"apogee_km":1147.6852769009,"semimajor_km":7104.3925524468,"source":"CELESTRAK","updated_at":"2026-05-25T13:38:03.131629Z"}}